Location: Unspecified
(45.6500°N, 0.0000°E)
Time: 10:36:40
(UTC+00:00)

Meteor 2-6 Rocket - Visible Passes

Search period start: 04 April 2026 00:00
Search period end: 14 April 2026 00:00
Orbit: 805 x 912 km, 81.3° (Epoch: 29 March)

Date Brightness Start Highest point End Pass type
(mag) Time Alt. Az. Time Alt. Az. Time Alt. Az.
4 Apr 6.7 02:56:26 10° SE 03:00:06 18° E 03:03:49 10° NE visible
4 Apr 4.2 04:37:08 10° SSW 04:42:34 64° WNW 04:48:11 10° N visible
5 Apr 6.7 02:46:57 10° SE 02:50:32 18° E 02:54:10 10° NE visible
5 Apr 4.2 04:27:31 10° SSW 04:32:58 66° WNW 04:38:37 10° N visible
6 Apr 6.7 02:37:29 10° ESE 02:40:57 17° E 02:44:30 10° NE visible
6 Apr 4.2 04:17:53 10° SSW 04:23:21 69° WNW 04:29:02 10° N visible
7 Apr 6.7 02:28:00 10° ESE 02:31:23 17° E 02:34:50 10° NE visible
7 Apr 4.2 04:08:17 10° SSW 04:13:45 71° WNW 04:19:27 10° N visible
8 Apr 6.7 02:18:32 10° ESE 02:21:49 16° E 02:25:10 10° NE visible
8 Apr 4.2 03:58:59 12° SSW 04:04:10 74° WNW 04:09:53 10° N visible
9 Apr 6.7 02:09:04 10° ESE 02:12:15 16° E 02:15:30 10° NE visible
9 Apr 4.1 03:49:57 15° SSW 03:54:33 76° WNW 04:00:18 10° N visible
10 Apr 6.7 01:59:37 10° ESE 02:02:41 15° E 02:05:49 10° NE visible
10 Apr 4.1 03:40:52 19° SSW 03:44:58 79° WNW 03:50:43 10° N visible
11 Apr 6.7 01:50:10 10° ESE 01:53:08 15° E 01:56:08 10° NE visible
11 Apr 4.1 03:31:44 23° SSW 03:35:22 81° W 03:41:09 10° N visible
12 Apr 6.7 01:40:43 10° ESE 01:43:34 14° E 01:46:27 10° NE visible
12 Apr 4.1 03:22:33 27° SSW 03:25:46 84° W 03:31:34 10° N visible
13 Apr 6.7 01:31:18 10° ESE 01:34:00 14° E 01:36:44 10° NE visible
13 Apr 4.2 03:13:20 31° SSW 03:16:11 86° WNW 03:21:59 10° N visible
